IR1CX-3 Weather Reports


time (UTC)temp
F
wind
direction
speed
knots
gust
knots
rain 1hr
in
rain 24hr
in
rain mn
in
humidity
%
barometer
mb
20260503160206 60 0.0 0.0 0.00 0.00 0.00 10 1019.5
20260503150945 62 0.0 0.0 0.00 0.00 0.00 10 1019.5
20260503150734 62 0.0 0.0 0.00 0.00 0.00 10 1019.5
20260503150629 62 0.0 0.0 0.00 0.00 0.00 10 1019.6
20260503150523 62 0.0 0.0 0.00 0.00 0.00 10 1019.6
20260503150418 62 0.0 0.0 0.00 0.00 0.00 10 1019.6
20260503150313 62 0.0 0.0 0.00 0.00 0.00 10 1019.7
20260503150207 62 0.0 0.0 0.00 0.00 0.00 10 1019.6
20260503140227 67 0.0 0.0 0.00 0.00 0.00 93 1020.4
20260503140121 67 0.0 0.0 0.00 0.00 0.00 93 1020.4
20260503131359 67 0.0 0.0 0.00 0.00 0.00 90 1020.9
20260503131148 67 0.0 0.0 0.00 0.00 0.00 90 1020.9
20260503131042 67 0.0 0.0 0.00 0.00 0.00 90 1020.9
20260503130937 67 0.0 0.0 0.00 0.00 0.00 90 1020.9
20260503130831 67 0.0 0.0 0.00 0.00 0.00 89 1020.8
20260503130726 67 0.0 0.0 0.00 0.00 0.00 89 1020.9
20260503130621 67 0.0 0.0 0.00 0.00 0.00 89 1020.8
20260503130515 67 0.0 0.0 0.00 0.00 0.00 88 1020.9
20260503130410 67 0.0 0.0 0.00 0.00 0.00 88 1020.9
20260503130304 67 0.0 0.0 0.00 0.00 0.00 88 1020.8
20260503120218 70 0.0 0.0 0.00 0.00 0.00 77 1021.3
20260503120112 70 0.0 0.0 0.00 0.00 0.00 77 1021.3
20260503110821 72 0.0 0.0 0.00 0.00 0.00 92 1021.4
20260503110533 72 0.0 0.0 0.00 0.00 0.00 92 1021.4
20260503110345 72 0.0 0.0 0.00 0.00 0.00 92 1021.3
20260503110159 72 0.0 0.0 0.00 0.00 0.00 93 1021.3
20260503100221 70 0.0 0.0 0.00 0.00 0.00 98 1021.8
20260503100116 70 0.0 0.0 0.00 0.00 0.00 98 1021.8
20260503090458 66 0.0 0.0 0.00 0.00 0.00 10 1021.7
20260503090353 66 0.0 0.0 0.00 0.00 0.00 10 1021.6
20260503090247 66 0.0 0.0 0.00 0.00 0.00 10 1021.7
20260503090142 66 0.0 0.0 0.00 0.00 0.00 10 1021.7
20260503081546 60 0.0 0.0 0.00 0.00 0.00 10 1021.4
20260503081441 60 0.0 0.0 0.00 0.00 0.00 10 1021.4
20260503081255 60 0.0 0.0 0.00 0.00 0.00 10 1021.4
20260503081150 60 0.0 0.0 0.00 0.00 0.00 10 1021.4
20260503081049 60 0.0 0.0 0.00 0.00 0.00 10 1021.4
20260503081004 60 0.0 0.0 0.00 0.00 0.00 10 1021.4
20260503080858 60 0.0 0.0 0.00 0.00 0.00 10 1021.4
20260503080758 60 0.0 0.0 0.00 0.00 0.00 10 1021.4
20260503080650 60 0.0 0.0 0.00 0.00 0.00 10 1021.3
20260503080419 60 0.0 0.0 0.00 0.00 0.00 10 1021.4
20260503080313 60 0.0 0.0 0.00 0.00 0.00 10 1021.4
20260503080208 60 0.0 0.0 0.00 0.00 0.00 10 1021.4
20260503080103 60 0.0 0.0 0.00 0.00 0.00 10 1021.4
20260503072449 54 0.0 0.0 0.00 0.00 0.00 10 1021.2
20260503070557 54 0.0 0.0 0.00 0.00 0.00 10 1021.0